Time,TemperatureF,DewpointF,PressureIn,WindDirection,WindDirectionDegrees,WindSpeedMPH,WindSpeedGustMPH,Humidity,HourlyPrecipIn,Conditions,Clouds,dailyrainin,SoftwareType,DateUTC
2014-10-02 00:05:00,60.3,51.2,28.47,WSW,237,0.0,0.0,72,0.00,,---,0.00,VWS V15.00,2014-10-02 07:05:00,
2014-10-02 00:11:00,60.1,51.0,28.47,WSW,237,0.0,0.0,72,0.00,,---,0.00,VWS V15.00,2014-10-02 07:11:00,
2014-10-02 00:17:00,59.7,50.7,28.47,WSW,237,0.0,0.0,72,0.00,,---,0.00,VWS V15.00,2014-10-02 07:17:00,
2014-10-02 00:22:00,59.7,50.7,28.47,WSW,237,0.0,0.0,72,0.00,,---,0.00,VWS V15.00,2014-10-02 07:22:00,
2014-10-02 00:28:00,59.5,50.5,28.47,WSW,237,0.0,0.0,72,0.00,,---,0.00,VWS V15.00,2014-10-02 07:28:00,
2014-10-02 00:33:00,59.5,50.5,28.47,WSW,237,0.0,0.0,72,0.00,,---,0.00,VWS V15.00,2014-10-02 07:33:00,
2014-10-02 00:38:00,59.5,50.5,28.47,WSW,237,0.0,0.0,72,0.00,,---,0.00,VWS V15.00,2014-10-02 07:38:00,
2014-10-02 00:43:00,59.4,50.3,28.47,WSW,237,0.0,0.0,72,0.00,,---,0.00,VWS V15.00,2014-10-02 07:43:00,
2014-10-02 00:49:00,59.4,50.3,28.47,WSW,237,0.0,0.0,72,0.00,,---,0.00,VWS V15.00,2014-10-02 07:49:00,
2014-10-02 00:54:00,59.5,50.5,28.47,WSW,237,0.0,0.0,72,0.00,,---,0.00,VWS V15.00,2014-10-02 07:54:00,
2014-10-02 01:01:00,59.7,51.1,28.47,WSW,237,0.0,0.0,73,0.00,,---,0.00,VWS V15.00,2014-10-02 08:01:00,
2014-10-02 01:07:00,59.9,51.2,28.47,WSW,237,0.0,0.0,73,0.00,,---,0.00,VWS V15.00,2014-10-02 08:07:00,
2014-10-02 01:13:00,60.1,51.4,28.47,WSW,237,0.0,0.0,73,0.00,,---,0.00,VWS V15.00,2014-10-02 08:13:00,
2014-10-02 01:19:00,60.4,51.8,28.47,WSW,237,0.0,0.0,73,0.00,,---,0.00,VWS V15.00,2014-10-02 08:19:00,
2014-10-02 01:25:00,61.2,52.5,28.47,WSW,237,0.0,0.0,73,0.00,,---,0.00,VWS V15.00,2014-10-02 08:25:00,
2014-10-02 01:30:00,61.9,53.5,28.47,WSW,237,0.0,0.0,74,0.00,,---,0.00,VWS V15.00,2014-10-02 08:30:00,
2014-10-02 01:36:00,63.1,54.3,28.47,WSW,237,0.0,0.0,73,0.00,,---,0.00,VWS V15.00,2014-10-02 08:36:00,
2014-10-02 01:42:00,64.2,55.4,28.47,WSW,237,0.0,0.0,73,0.00,,---,0.00,VWS V15.00,2014-10-02 08:42:00,
2014-10-02 01:47:00,64.8,55.5,28.47,WSW,237,0.0,0.0,72,0.00,,---,0.00,VWS V15.00,2014-10-02 08:47:00,
2014-10-02 01:53:00,66.4,55.9,28.47,WSW,237,0.0,0.0,69,0.00,,---,0.00,VWS V15.00,2014-10-02 08:53:00,
2014-10-02 01:59:00,67.3,55.5,28.50,WSW,237,0.0,0.0,66,0.00,,---,0.00,VWS V15.00,2014-10-02 08:59:00,
2014-10-02 02:04:00,68.0,52.7,28.50,WSW,237,0.0,0.0,58,0.00,,---,0.00,VWS V15.00,2014-10-02 09:04:00,
2014-10-02 02:10:00,69.6,50.7,28.50,WSW,237,0.0,0.0,51,0.00,,---,0.00,VWS V15.00,2014-10-02 09:10:00,
2014-10-02 02:16:00,71.2,47.6,28.50,WSW,237,0.0,2.7,43,0.00,,---,0.00,VWS V15.00,2014-10-02 09:16:00,
2014-10-02 02:21:00,72.0,45.0,28.50,SW,229,0.0,0.0,38,0.00,,---,0.00,VWS V15.00,2014-10-02 09:21:00,
2014-10-02 02:26:00,72.7,42.7,28.50,NE,53,3.1,3.1,34,0.00,,---,0.00,VWS V15.00,2014-10-02 09:26:00,
2014-10-02 02:31:00,73.2,42.4,28.50,NE,51,2.7,3.6,33,0.00,,---,0.00,VWS V15.00,2014-10-02 09:31:00,
2014-10-02 02:37:00,73.6,41.9,28.50,NE,51,2.7,2.7,32,0.00,,---,0.00,VWS V15.00,2014-10-02 09:37:00,
2014-10-02 02:42:00,73.9,41.4,28.50,NE,51,0.0,0.0,31,0.00,,---,0.00,VWS V15.00,2014-10-02 09:42:00,
2014-10-02 02:48:00,73.9,41.4,28.50,NE,51,0.0,0.0,31,0.00,,---,0.00,VWS V15.00,2014-10-02 09:48:00,
2014-10-02 02:53:00,73.2,41.6,28.50,NE,51,0.0,0.0,32,0.00,,---,0.00,VWS V15.00,2014-10-02 09:53:00,
2014-10-02 02:59:00,72.3,40.8,28.50,NE,51,0.0,0.0,32,0.00,,---,0.00,VWS V15.00,2014-10-02 09:59:00,
2014-10-02 03:04:00,71.4,40.0,28.50,NE,51,0.0,0.0,32,0.00,,---,0.00,VWS V15.00,2014-10-02 10:04:00,
2014-10-02 03:10:00,70.7,39.4,28.50,NE,51,0.0,0.0,32,0.00,,---,0.00,VWS V15.00,2014-10-02 10:10:00,
2014-10-02 03:16:00,70.3,39.1,28.50,NE,51,0.0,0.0,32,0.00,,---,0.00,VWS V15.00,2014-10-02 10:16:00,
2014-10-02 03:21:00,70.2,39.0,28.50,NE,51,0.0,0.0,32,0.00,,---,0.00,VWS V15.00,2014-10-02 10:21:00,
2014-10-02 03:27:00,69.8,38.6,28.50,NE,51,0.0,0.0,32,0.00,,---,0.00,VWS V15.00,2014-10-02 10:27:00,
2014-10-02 03:33:00,69.6,38.5,28.50,NE,51,0.0,0.0,32,0.00,,---,0.00,VWS V15.00,2014-10-02 10:33:00,
2014-10-02 03:38:00,69.3,38.2,28.50,NE,51,0.0,0.0,32,0.00,,---,0.00,VWS V15.00,2014-10-02 10:38:00,
2014-10-02 03:43:00,68.9,37.8,28.50,NE,51,0.0,0.0,32,0.00,,---,0.00,VWS V15.00,2014-10-02 10:43:00,
2014-10-02 03:48:00,68.7,37.7,28.50,NE,51,0.0,0.0,32,0.00,,---,0.00,VWS V15.00,2014-10-02 10:48:00,
2014-10-02 03:54:00,68.4,37.4,28.50,NE,51,0.0,0.0,32,0.00,,---,0.00,VWS V15.00,2014-10-02 10:54:00,
2014-10-02 03:59:00,68.2,37.2,28.50,NE,51,0.0,0.0,32,0.00,,---,0.00,VWS V15.00,2014-10-02 10:59:00,
2014-10-02 04:04:00,67.6,37.5,28.50,NE,51,0.0,0.0,33,0.00,,---,0.00,VWS V15.00,2014-10-02 11:04:00,
2014-10-02 04:10:00,67.3,37.2,28.50,NE,51,0.0,0.0,33,0.00,,---,0.00,VWS V15.00,2014-10-02 11:10:00,
2014-10-02 04:16:00,66.7,36.8,28.50,NE,51,0.0,0.0,33,0.00,,---,0.00,VWS V15.00,2014-10-02 11:16:00,
2014-10-02 04:22:00,66.2,36.3,28.50,NE,51,0.0,0.0,33,0.00,,---,0.00,VWS V15.00,2014-10-02 11:22:00,
2014-10-02 04:27:00,65.8,36.0,28.50,NE,51,0.0,0.0,33,0.00,,---,0.00,VWS V15.00,2014-10-02 11:27:00,
2014-10-02 04:32:00,65.3,35.5,28.50,NE,51,0.0,0.0,33,0.00,,---,0.00,VWS V15.00,2014-10-02 11:32:00,
2014-10-02 04:37:00,64.8,35.0,28.50,ENE,74,0.0,0.0,33,0.00,,---,0.00,VWS V15.00,2014-10-02 11:37:00,
2014-10-02 04:44:00,64.6,34.8,28.50,ENE,74,0.0,0.0,33,0.00,,---,0.00,VWS V15.00,2014-10-02 11:44:00,